GLO1790 SBGL-SBFI

Flight info

Callsign GLO1790
Flight time 1h 57m
Altitude 38000
Route NAXOP UZ45 RAXIT DCT DIDOM
Aircraft B38M/M-DFGHIKLORWX/LB1

Departure

Time 2026-05-07 18:12
Airport Rio Galeão – Tom Jobim International Airport (SBGL)

Arrival

Time 2026-05-07 20:09
Airport Cataratas International Airport (SBFI)
Time Latitude Longitude Altitude Speed Heading
2026-05-07 17:40 -22.81265 -43.25047 24 ft 0 kts 350°
2026-05-07 18:00 -22.81267 -43.25047 24 ft 1 kts 349°
2026-05-07 18:00 -22.81283 -43.25042 25 ft 3 kts 336°
2026-05-07 18:01 -22.81299 -43.25031 25 ft 3 kts 307°
2026-05-07 18:01 -22.81307 -43.25013 27 ft 3 kts 271°
2026-05-07 18:01 -22.81305 -43.24997 25 ft 1 kts 250°
2026-05-07 18:01 -22.81304 -43.24995 25 ft 1 kts 250°
2026-05-07 18:05 -22.81306 -43.25001 27 ft 2 kts 250°
2026-05-07 18:05 -22.81315 -43.25036 26 ft 7 kts 262°
2026-05-07 18:05 -22.81330 -43.25113 27 ft 14 kts 235°
2026-05-07 18:06 -22.81419 -43.25117 26 ft 13 kts 195°
2026-05-07 18:06 -22.81506 -43.25176 26 ft 18 kts 215°
2026-05-07 18:06 -22.81545 -43.25281 26 ft 17 kts 298°
2026-05-07 18:06 -22.81480 -43.25381 24 ft 16 kts 305°
2026-05-07 18:07 -22.81417 -43.25477 24 ft 17 kts 305°
2026-05-07 18:07 -22.81334 -43.25601 25 ft 22 kts 306°
2026-05-07 18:07 -22.81247 -43.25734 25 ft 17 kts 306°
2026-05-07 18:07 -22.81195 -43.25811 25 ft 8 kts 306°
2026-05-07 18:08 -22.81128 -43.25819 24 ft 14 kts 36°
2026-05-07 18:08 -22.81037 -43.25748 26 ft 14 kts 35°
2026-05-07 18:08 -22.80943 -43.25676 25 ft 12 kts 35°
2026-05-07 18:08 -22.80891 -43.25642 28 ft 7 kts 13°
2026-05-07 18:09 -22.80832 -43.25664 28 ft 11 kts 320°
2026-05-07 18:09 -22.80746 -43.25667 31 ft 15 kts 34°
2026-05-07 18:09 -22.80658 -43.25600 31 ft 18 kts 36°
2026-05-07 18:09 -22.80570 -43.25532 32 ft 14 kts 35°
2026-05-07 18:10 -22.80493 -43.25458 32 ft 15 kts 43°
2026-05-07 18:10 -22.80397 -43.25450 31 ft 13 kts 327°
2026-05-07 18:10 -22.80329 -43.25500 30 ft 14 kts 325°
2026-05-07 18:10 -22.80237 -43.25499 27 ft 15 kts 34°
2026-05-07 18:11 -22.80165 -43.25419 28 ft 8 kts 70°
2026-05-07 18:11 -22.80162 -43.25410 28 ft 0 kts 74°
2026-05-07 18:11 -22.80063 -43.25026 30 ft 93 kts 74°
2026-05-07 18:11 -22.79819 -43.24089 33 ft 163 kts 77°
2026-05-07 18:12 -22.79485 -43.22731 265 ft 209 kts 76°
2026-05-07 18:12 -22.79131 -43.21200 707 ft 208 kts 77°
2026-05-07 18:12 -22.78803 -43.19702 1624 ft 197 kts 77°
2026-05-07 18:12 -22.78470 -43.18174 2165 ft 222 kts 76°
2026-05-07 18:13 -22.78102 -43.16458 2845 ft 235 kts 75°
2026-05-07 18:13 -22.77732 -43.14722 3831 ft 240 kts 73°
2026-05-07 18:13 -22.77348 -43.12925 4719 ft 247 kts 73°
2026-05-07 18:13 -22.76960 -43.11103 5678 ft 250 kts 73°
2026-05-07 18:14 -22.76566 -43.09252 6587 ft 253 kts 73°
2026-05-07 18:14 -22.76168 -43.07381 7471 ft 257 kts 73°
2026-05-07 18:14 -22.75792 -43.05494 8298 ft 263 kts 81°
2026-05-07 18:14 -22.76001 -43.03510 9181 ft 271 kts 109°
2026-05-07 18:15 -22.77052 -43.01799 10013 ft 278 kts 137°
2026-05-07 18:15 -22.78684 -43.00642 10791 ft 283 kts 149°
2026-05-07 18:15 -22.80393 -42.99553 11539 ft 286 kts 148°
2026-05-07 18:15 -22.82112 -42.98447 12338 ft 288 kts 148°
2026-05-07 18:16 -22.83988 -42.97578 12813 ft 305 kts 169°
2026-05-07 18:16 -22.86158 -42.97639 13135 ft 323 kts 196°
2026-05-07 18:16 -22.88179 -42.98783 13560 ft 336 kts 220°
2026-05-07 18:16 -22.90005 -43.00443 13973 ft 349 kts 219°
2026-05-07 18:17 -22.91904 -43.02097 14650 ft 350 kts 219°
2026-05-07 18:17 -22.93816 -43.03751 15293 ft 354 kts 218°
2026-05-07 18:17 -22.95755 -43.05425 15895 ft 357 kts 218°
2026-05-07 18:17 -22.97681 -43.07087 16542 ft 360 kts 218°
2026-05-07 18:18 -22.99642 -43.08783 17190 ft 361 kts 218°
2026-05-07 18:18 -23.01609 -43.10504 17819 ft 364 kts 218°
2026-05-07 18:18 -23.03590 -43.12235 18403 ft 367 kts 218°
2026-05-07 18:18 -23.05574 -43.13970 18923 ft 368 kts 218°
2026-05-07 18:19 -23.07562 -43.15710 19535 ft 367 kts 218°
2026-05-07 18:19 -23.09560 -43.17458 20058 ft 369 kts 218°
2026-05-07 18:19 -23.11566 -43.19213 20559 ft 372 kts 218°
2026-05-07 18:19 -23.13580 -43.20977 21100 ft 373 kts 218°
2026-05-07 18:20 -23.15612 -43.22757 21615 ft 374 kts 218°
2026-05-07 18:20 -23.17637 -43.24532 22178 ft 375 kts 219°
2026-05-07 18:20 -23.19679 -43.26322 22627 ft 379 kts 219°
2026-05-07 18:20 -23.21709 -43.28102 23102 ft 381 kts 219°
2026-05-07 18:21 -23.23765 -43.29906 23591 ft 383 kts 219°
2026-05-07 18:21 -23.25844 -43.31730 23982 ft 385 kts 219°
2026-05-07 18:21 -23.27932 -43.33564 24405 ft 386 kts 219°
2026-05-07 18:21 -23.30029 -43.35406 24817 ft 387 kts 219°
2026-05-07 18:22 -23.32059 -43.37340 25204 ft 389 kts 228°
2026-05-07 18:22 -23.33116 -43.38912 25483 ft 390 kts 240°
2026-05-07 18:22 -23.34396 -43.42613 25996 ft 394 kts 252°
2026-05-07 18:22 -23.35144 -43.45500 26339 ft 397 kts 253°
2026-05-07 18:23 -23.35863 -43.48402 26723 ft 398 kts 253°
2026-05-07 18:23 -23.36569 -43.51324 27095 ft 400 kts 253°
2026-05-07 18:23 -23.37264 -43.54255 27458 ft 402 kts 253°
2026-05-07 18:23 -23.37958 -43.57204 27816 ft 403 kts 253°
2026-05-07 18:24 -23.38653 -43.60170 28164 ft 405 kts 253°
2026-05-07 18:24 -23.39340 -43.63110 28523 ft 407 kts 253°
2026-05-07 18:24 -23.40039 -43.66101 28867 ft 408 kts 253°
2026-05-07 18:24 -23.40739 -43.69103 29201 ft 410 kts 253°
2026-05-07 18:25 -23.41442 -43.72119 29533 ft 412 kts 253°
2026-05-07 18:25 -23.42147 -43.75150 29855 ft 413 kts 253°
2026-05-07 18:25 -23.42855 -43.78193 30166 ft 415 kts 253°
2026-05-07 18:25 -23.43562 -43.81235 30456 ft 416 kts 253°
2026-05-07 18:26 -23.44273 -43.84299 30741 ft 417 kts 253°
2026-05-07 18:26 -23.44986 -43.87369 31011 ft 419 kts 253°
2026-05-07 18:26 -23.45700 -43.90453 31284 ft 421 kts 253°
2026-05-07 18:26 -23.46416 -43.93547 31551 ft 422 kts 253°
2026-05-07 18:27 -23.47135 -43.96655 31825 ft 423 kts 253°
2026-05-07 18:27 -23.47854 -43.99767 32088 ft 425 kts 253°
2026-05-07 18:27 -23.48576 -44.02898 32342 ft 426 kts 253°
2026-05-07 18:27 -23.49056 -44.04980 32517 ft 427 kts 253°
2026-05-07 18:28 -23.50022 -44.09171 32908 ft 428 kts 253°
2026-05-07 18:28 -23.50736 -44.12272 33250 ft 427 kts 253°
2026-05-07 18:28 -23.51458 -44.15413 33612 ft 426 kts 252°
2026-05-07 18:28 -23.52177 -44.18541 33971 ft 425 kts 252°
2026-05-07 18:29 -23.52893 -44.21657 34283 ft 423 kts 252°
2026-05-07 18:29 -23.53605 -44.24762 34597 ft 421 kts 252°
2026-05-07 18:29 -23.54314 -44.27855 34936 ft 419 kts 252°
2026-05-07 18:29 -23.55016 -44.30917 35328 ft 415 kts 252°
2026-05-07 18:30 -23.55709 -44.33946 35662 ft 412 kts 252°
2026-05-07 18:30 -23.56398 -44.36964 35960 ft 410 kts 252°
2026-05-07 18:30 -23.57086 -44.39975 36245 ft 408 kts 252°
2026-05-07 18:30 -23.57769 -44.42973 36501 ft 406 kts 252°
2026-05-07 18:31 -23.58451 -44.45963 36762 ft 405 kts 252°
2026-05-07 18:31 -23.59127 -44.48931 37007 ft 403 kts 252°
2026-05-07 18:31 -23.59792 -44.51858 37247 ft 402 kts 252°
2026-05-07 18:31 -23.60462 -44.54804 37460 ft 400 kts 252°
2026-05-07 18:32 -23.61129 -44.57746 37691 ft 399 kts 252°
2026-05-07 18:32 -23.61792 -44.60666 37912 ft 397 kts 252°
2026-05-07 18:32 -23.62455 -44.63595 37950 ft 397 kts 252°
2026-05-07 18:33 -23.63770 -44.69402 37946 ft 393 kts 252°
2026-05-07 18:33 -23.65080 -44.75204 37932 ft 394 kts 252°
2026-05-07 18:34 -23.66388 -44.81006 37924 ft 394 kts 252°
2026-05-07 18:34 -23.67693 -44.86801 37936 ft 394 kts 252°
2026-05-07 18:35 -23.69001 -44.92624 37938 ft 394 kts 252°
2026-05-07 18:35 -23.70295 -44.98394 37942 ft 393 kts 252°
2026-05-07 18:36 -23.71591 -45.04187 37941 ft 393 kts 252°
2026-05-07 18:36 -23.72886 -45.09983 37943 ft 393 kts 252°
2026-05-07 18:37 -23.74178 -45.15777 37937 ft 393 kts 252°
2026-05-07 18:37 -23.75469 -45.21573 37936 ft 393 kts 252°
2026-05-07 18:38 -23.76752 -45.27379 37937 ft 394 kts 252°
2026-05-07 18:38 -23.78027 -45.33156 37938 ft 394 kts 252°
2026-05-07 18:39 -23.79308 -45.38972 37917 ft 394 kts 252°
2026-05-07 18:39 -23.80373 -45.43813 37943 ft 395 kts 252°
2026-05-07 18:40 -23.81655 -45.49652 37926 ft 394 kts 253°
2026-05-07 18:40 -23.82933 -45.55483 37924 ft 395 kts 253°
2026-05-07 18:41 -23.84209 -45.61318 37931 ft 395 kts 253°
2026-05-07 18:41 -23.85487 -45.67158 37929 ft 396 kts 253°
2026-05-07 18:42 -23.86766 -45.73006 37928 ft 396 kts 253°
2026-05-07 18:42 -23.88044 -45.78861 37920 ft 396 kts 253°
2026-05-07 18:43 -23.89310 -45.84672 37918 ft 396 kts 253°
2026-05-07 18:43 -23.90583 -45.90525 37919 ft 396 kts 253°
2026-05-07 18:44 -23.91852 -45.96374 37911 ft 396 kts 253°
2026-05-07 18:44 -23.93120 -46.02227 37901 ft 394 kts 253°
2026-05-07 18:45 -23.94382 -46.08065 37900 ft 394 kts 253°
2026-05-07 18:45 -23.95633 -46.13866 37890 ft 394 kts 253°
2026-05-07 18:46 -23.96887 -46.19689 37886 ft 394 kts 253°
2026-05-07 18:46 -23.98144 -46.25509 37881 ft 393 kts 252°
2026-05-07 18:47 -23.99951 -46.31119 37871 ft 391 kts 248°
2026-05-07 18:47 -24.01734 -46.36742 37886 ft 391 kts 249°
2026-05-07 18:48 -24.03496 -46.42362 37893 ft 390 kts 249°
2026-05-07 18:48 -24.05250 -46.47974 37899 ft 390 kts 249°
2026-05-07 18:49 -24.07003 -46.53590 37907 ft 390 kts 249°
2026-05-07 18:49 -24.08783 -46.59204 37911 ft 390 kts 249°
2026-05-07 18:50 -24.10562 -46.64813 37920 ft 390 kts 249°
2026-05-07 18:50 -24.12325 -46.70383 37922 ft 390 kts 249°
2026-05-07 18:51 -24.14111 -46.76034 37933 ft 390 kts 249°
2026-05-07 18:51 -24.15872 -46.81615 37920 ft 390 kts 249°
2026-05-07 18:52 -24.17643 -46.87233 37918 ft 390 kts 249°
2026-05-07 18:52 -24.19412 -46.92856 37919 ft 390 kts 249°
2026-05-07 18:53 -24.21176 -46.98471 37916 ft 390 kts 249°
2026-05-07 18:53 -24.22939 -47.04090 37923 ft 390 kts 249°
2026-05-07 18:54 -24.24700 -47.09710 37916 ft 390 kts 249°
2026-05-07 18:54 -24.26424 -47.15344 37916 ft 390 kts 250°
2026-05-07 18:55 -24.28071 -47.21004 37916 ft 389 kts 250°
2026-05-07 18:55 -24.29717 -47.26638 37903 ft 388 kts 250°
2026-05-07 18:56 -24.31350 -47.32240 37906 ft 388 kts 250°
2026-05-07 18:56 -24.32992 -47.37875 37908 ft 388 kts 250°
2026-05-07 18:57 -24.34631 -47.43510 37887 ft 387 kts 250°
2026-05-07 18:57 -24.36258 -47.49115 37898 ft 387 kts 250°
2026-05-07 18:58 -24.37886 -47.54730 37913 ft 387 kts 251°
2026-05-07 18:58 -24.39515 -47.60355 37904 ft 386 kts 251°
2026-05-07 18:59 -24.41138 -47.65969 37878 ft 385 kts 251°
2026-05-07 18:59 -24.42394 -47.71679 37903 ft 386 kts 257°
2026-05-07 19:00 -24.43389 -47.77472 37872 ft 386 kts 257°
2026-05-07 19:00 -24.44418 -47.83268 37878 ft 387 kts 256°
2026-05-07 19:01 -24.45443 -47.89021 37887 ft 387 kts 256°
2026-05-07 19:01 -24.46476 -47.94829 37883 ft 387 kts 256°
2026-05-07 19:02 -24.47507 -48.00634 37886 ft 387 kts 256°
2026-05-07 19:02 -24.48533 -48.06431 37888 ft 387 kts 256°
2026-05-07 19:03 -24.49560 -48.12240 37887 ft 387 kts 256°
2026-05-07 19:03 -24.50577 -48.18009 37893 ft 387 kts 257°
2026-05-07 19:04 -24.51597 -48.23811 37892 ft 387 kts 257°
2026-05-07 19:04 -24.52615 -48.29613 37903 ft 388 kts 257°
2026-05-07 19:05 -24.53633 -48.35423 37897 ft 388 kts 257°
2026-05-07 19:05 -24.54648 -48.41240 37903 ft 387 kts 257°
2026-05-07 19:06 -24.55659 -48.47048 37881 ft 386 kts 257°
2026-05-07 19:06 -24.57162 -48.55699 37909 ft 387 kts 257°
2026-05-07 19:07 -24.58166 -48.61494 37907 ft 386 kts 257°
2026-05-07 19:07 -24.59169 -48.67293 37933 ft 384 kts 257°
2026-05-07 19:08 -24.60164 -48.73073 37886 ft 384 kts 257°
2026-05-07 19:08 -24.61157 -48.78845 37907 ft 385 kts 257°
2026-05-07 19:09 -24.62147 -48.84619 37907 ft 385 kts 257°
2026-05-07 19:09 -24.63136 -48.90396 37899 ft 384 kts 258°
2026-05-07 19:10 -24.64117 -48.96139 37874 ft 385 kts 257°
2026-05-07 19:10 -24.65100 -49.01909 37946 ft 385 kts 257°
2026-05-07 19:11 -24.66082 -49.07693 37908 ft 384 kts 257°
2026-05-07 19:11 -24.67060 -49.13461 37904 ft 384 kts 258°
2026-05-07 19:12 -24.68037 -49.19235 37906 ft 384 kts 258°
2026-05-07 19:12 -24.69004 -49.24970 37921 ft 384 kts 258°
2026-05-07 19:13 -24.69975 -49.30739 37903 ft 383 kts 258°
2026-05-07 19:13 -24.70943 -49.36507 37918 ft 384 kts 258°
2026-05-07 19:14 -24.71912 -49.42289 37906 ft 384 kts 258°
2026-05-07 19:14 -24.72877 -49.48068 37912 ft 385 kts 258°
2026-05-07 19:15 -24.73842 -49.53860 37918 ft 385 kts 259°
2026-05-07 19:15 -24.74803 -49.59637 37914 ft 384 kts 259°
2026-05-07 19:16 -24.75758 -49.65401 37921 ft 384 kts 259°
2026-05-07 19:16 -24.76708 -49.71142 37923 ft 384 kts 259°
2026-05-07 19:17 -24.77663 -49.76928 37930 ft 383 kts 259°
2026-05-07 19:17 -24.78611 -49.82690 37924 ft 382 kts 259°
2026-05-07 19:18 -24.79557 -49.88450 37926 ft 383 kts 259°
2026-05-07 19:18 -24.80500 -49.94205 37926 ft 383 kts 259°
2026-05-07 19:19 -24.81441 -49.99965 37930 ft 382 kts 259°
2026-05-07 19:19 -24.82378 -50.05710 37919 ft 381 kts 259°
2026-05-07 19:20 -24.83311 -50.11450 37925 ft 381 kts 259°
2026-05-07 19:20 -24.84236 -50.17154 37919 ft 381 kts 259°
2026-05-07 19:21 -24.85164 -50.22893 37920 ft 379 kts 260°
2026-05-07 19:21 -24.86084 -50.28597 37915 ft 378 kts 260°
2026-05-07 19:22 -24.87004 -50.34308 37910 ft 379 kts 260°
2026-05-07 19:22 -24.87921 -50.40022 37913 ft 379 kts 260°
2026-05-07 19:23 -24.88834 -50.45721 37906 ft 378 kts 260°
2026-05-07 19:23 -24.89743 -50.51416 37906 ft 377 kts 260°
2026-05-07 19:24 -24.90650 -50.57107 37910 ft 377 kts 260°
2026-05-07 19:24 -24.91555 -50.62800 37894 ft 377 kts 260°
2026-05-07 19:25 -24.92450 -50.68445 37895 ft 376 kts 261°
2026-05-07 19:25 -24.93345 -50.74107 37890 ft 376 kts 261°
2026-05-07 19:26 -24.94244 -50.79802 37889 ft 377 kts 261°
2026-05-07 19:26 -24.95140 -50.85498 37892 ft 378 kts 260°
2026-05-07 19:27 -24.96034 -50.91197 37893 ft 376 kts 261°
2026-05-07 19:27 -24.96923 -50.96878 37895 ft 376 kts 261°
2026-05-07 19:28 -24.97810 -51.02557 37886 ft 376 kts 261°
2026-05-07 19:28 -24.98691 -51.08210 37895 ft 376 kts 261°
2026-05-07 19:29 -24.99574 -51.13897 37892 ft 376 kts 261°
2026-05-07 19:29 -25.00313 -51.18666 37886 ft 376 kts 261°
2026-05-07 19:30 -25.01188 -51.24323 37903 ft 377 kts 260°
2026-05-07 19:30 -25.02063 -51.30006 37892 ft 376 kts 261°
2026-05-07 19:31 -25.02937 -51.35691 37905 ft 376 kts 261°
2026-05-07 19:31 -25.03809 -51.41375 37893 ft 375 kts 261°
2026-05-07 19:32 -25.04679 -51.47058 37885 ft 376 kts 261°
2026-05-07 19:32 -25.05546 -51.52743 37894 ft 376 kts 261°
2026-05-07 19:33 -25.06409 -51.58412 37901 ft 375 kts 262°
2026-05-07 19:33 -25.07263 -51.64042 37894 ft 374 kts 262°
2026-05-07 19:34 -25.08121 -51.69709 37897 ft 375 kts 262°
2026-05-07 19:34 -25.08978 -51.75385 37894 ft 375 kts 262°
2026-05-07 19:35 -25.09831 -51.81051 37902 ft 375 kts 262°
2026-05-07 19:35 -25.10682 -51.86717 37891 ft 374 kts 262°
2026-05-07 19:36 -25.11532 -51.92392 37882 ft 374 kts 262°
2026-05-07 19:36 -25.12373 -51.98023 37882 ft 374 kts 262°
2026-05-07 19:37 -25.12792 -52.00832 37548 ft 368 kts 262°
2026-05-07 19:37 -25.13203 -52.03592 37160 ft 361 kts 262°
2026-05-07 19:37 -25.13602 -52.06273 37070 ft 347 kts 262°
2026-05-07 19:37 -25.13987 -52.08865 36859 ft 343 kts 262°
2026-05-07 19:38 -25.14376 -52.11493 36483 ft 353 kts 262°
2026-05-07 19:38 -25.14775 -52.14188 35953 ft 358 kts 262°
2026-05-07 19:38 -25.15178 -52.16906 35492 ft 358 kts 262°
2026-05-07 19:38 -25.15578 -52.19617 34997 ft 357 kts 262°
2026-05-07 19:39 -25.15976 -52.22315 34518 ft 355 kts 262°
2026-05-07 19:39 -25.16371 -52.24998 34044 ft 353 kts 262°
2026-05-07 19:39 -25.16764 -52.27668 33538 ft 352 kts 262°
2026-05-07 19:39 -25.17154 -52.30324 33035 ft 350 kts 263°
2026-05-07 19:40 -25.17542 -52.32970 32570 ft 347 kts 263°
2026-05-07 19:40 -25.17925 -52.35581 32125 ft 345 kts 263°
2026-05-07 19:40 -25.18307 -52.38185 31699 ft 342 kts 263°
2026-05-07 19:40 -25.18680 -52.40734 31282 ft 339 kts 264°
2026-05-07 19:41 -25.19053 -52.43295 30853 ft 337 kts 264°
2026-05-07 19:41 -25.19424 -52.45839 30450 ft 334 kts 264°
2026-05-07 19:41 -25.19793 -52.48366 30062 ft 332 kts 264°
2026-05-07 19:41 -25.20158 -52.50875 29631 ft 330 kts 264°
2026-05-07 19:42 -25.20521 -52.53375 29231 ft 327 kts 265°
2026-05-07 19:42 -25.20882 -52.55858 28813 ft 330 kts 265°
2026-05-07 19:42 -25.21247 -52.58378 28452 ft 335 kts 265°
2026-05-07 19:42 -25.21615 -52.60920 28069 ft 336 kts 265°
2026-05-07 19:43 -25.21983 -52.63461 27706 ft 336 kts 265°
2026-05-07 19:43 -25.22351 -52.66005 27327 ft 335 kts 265°
2026-05-07 19:43 -25.22717 -52.68539 26948 ft 334 kts 265°
2026-05-07 19:43 -25.23081 -52.71064 26587 ft 333 kts 265°
2026-05-07 19:44 -25.23445 -52.73588 26223 ft 332 kts 265°
2026-05-07 19:44 -25.23806 -52.76099 25861 ft 331 kts 265°
2026-05-07 19:44 -25.24166 -52.78602 25506 ft 330 kts 265°
2026-05-07 19:44 -25.24519 -52.81059 25151 ft 327 kts 265°
2026-05-07 19:45 -25.24874 -52.83536 24815 ft 325 kts 265°
2026-05-07 19:45 -25.25226 -52.85992 24473 ft 323 kts 266°
2026-05-07 19:45 -25.25574 -52.88432 24130 ft 321 kts 266°
2026-05-07 19:45 -25.25921 -52.90856 23792 ft 319 kts 266°
2026-05-07 19:46 -25.26266 -52.93271 23448 ft 317 kts 265°
2026-05-07 19:46 -25.26609 -52.95671 23066 ft 314 kts 266°
2026-05-07 19:46 -25.26947 -52.98045 22711 ft 311 kts 266°
2026-05-07 19:46 -25.27281 -53.00396 22375 ft 308 kts 266°
2026-05-07 19:47 -25.27612 -53.02732 22059 ft 309 kts 266°
2026-05-07 19:47 -25.27948 -53.05099 21738 ft 314 kts 266°
2026-05-07 19:47 -25.28288 -53.07501 21402 ft 317 kts 267°
2026-05-07 19:47 -25.28629 -53.09911 21069 ft 317 kts 267°
2026-05-07 19:48 -25.28970 -53.12318 20723 ft 316 kts 267°
2026-05-07 19:48 -25.29309 -53.14714 20422 ft 315 kts 266°
2026-05-07 19:48 -25.29645 -53.17098 20097 ft 315 kts 266°
2026-05-07 19:48 -25.30074 -53.19479 19723 ft 317 kts 262°
2026-05-07 19:49 -25.30591 -53.21843 19382 ft 315 kts 262°
2026-05-07 19:49 -25.31088 -53.24164 19070 ft 313 kts 263°
2026-05-07 19:49 -25.31585 -53.26499 18748 ft 311 kts 263°
2026-05-07 19:49 -25.32074 -53.28815 18428 ft 308 kts 263°
2026-05-07 19:50 -25.32558 -53.31114 18119 ft 306 kts 263°
2026-05-07 19:50 -25.33038 -53.33403 17759 ft 305 kts 263°
2026-05-07 19:50 -25.33514 -53.35670 17421 ft 302 kts 263°
2026-05-07 19:50 -25.33986 -53.37917 17110 ft 299 kts 263°
2026-05-07 19:51 -25.34453 -53.40139 16794 ft 295 kts 263°
2026-05-07 19:51 -25.34912 -53.42335 16510 ft 293 kts 263°
2026-05-07 19:51 -25.35373 -53.44542 16191 ft 298 kts 264°
2026-05-07 19:51 -25.35843 -53.46790 15879 ft 302 kts 263°
2026-05-07 19:52 -25.36318 -53.49061 15569 ft 303 kts 264°
2026-05-07 19:52 -25.36793 -53.51332 15256 ft 302 kts 263°
2026-05-07 19:52 -25.37264 -53.53586 14941 ft 299 kts 264°
2026-05-07 19:52 -25.37729 -53.55816 14630 ft 297 kts 264°
2026-05-07 19:53 -25.38192 -53.58033 14328 ft 294 kts 264°
2026-05-07 19:53 -25.38649 -53.60233 14016 ft 292 kts 264°
2026-05-07 19:53 -25.39103 -53.62416 13713 ft 290 kts 264°
2026-05-07 19:53 -25.39553 -53.64584 13408 ft 289 kts 264°
2026-05-07 19:54 -25.40002 -53.66745 13068 ft 287 kts 264°
2026-05-07 19:54 -25.40442 -53.68869 12750 ft 286 kts 264°
2026-05-07 19:54 -25.40882 -53.70992 12458 ft 283 kts 264°
2026-05-07 19:54 -25.41321 -53.73109 12170 ft 281 kts 264°
2026-05-07 19:55 -25.41756 -53.75206 11866 ft 278 kts 264°
2026-05-07 19:55 -25.42184 -53.77280 11587 ft 276 kts 264°
2026-05-07 19:55 -25.42611 -53.79343 11293 ft 274 kts 264°
2026-05-07 19:55 -25.43038 -53.81397 11008 ft 273 kts 263°
2026-05-07 19:56 -25.43481 -53.83436 10687 ft 272 kts 263°
2026-05-07 19:56 -25.43921 -53.85464 10393 ft 270 kts 263°
2026-05-07 19:56 -25.44357 -53.87476 10113 ft 268 kts 263°
2026-05-07 19:56 -25.44789 -53.89472 9894 ft 266 kts 263°
2026-05-07 19:57 -25.45221 -53.91477 9704 ft 269 kts 262°
2026-05-07 19:57 -25.45657 -53.93497 9405 ft 269 kts 263°
2026-05-07 19:57 -25.46091 -53.95508 9094 ft 269 kts 263°
2026-05-07 19:57 -25.46525 -53.97521 8802 ft 268 kts 263°
2026-05-07 19:58 -25.46951 -53.99498 8498 ft 268 kts 263°
2026-05-07 19:58 -25.47388 -54.01494 8217 ft 266 kts 261°
2026-05-07 19:58 -25.48253 -54.03335 7886 ft 276 kts 239°
2026-05-07 19:58 -25.49439 -54.05018 7585 ft 278 kts 240°
2026-05-07 19:59 -25.50605 -54.06694 7334 ft 270 kts 240°
2026-05-07 19:59 -25.51734 -54.08308 7055 ft 261 kts 240°
2026-05-07 19:59 -25.52825 -54.09862 6849 ft 250 kts 241°
2026-05-07 19:59 -25.53867 -54.11344 6624 ft 239 kts 241°
2026-05-07 20:00 -25.54874 -54.12773 6390 ft 230 kts 241°
2026-05-07 20:00 -25.55839 -54.14143 6147 ft 221 kts 242°
2026-05-07 20:00 -25.56765 -54.15459 5924 ft 212 kts 243°
2026-05-07 20:00 -25.57654 -54.16723 5691 ft 203 kts 243°
2026-05-07 20:01 -25.58499 -54.17925 5444 ft 193 kts 243°
2026-05-07 20:01 -25.59310 -54.19080 5187 ft 188 kts 244°
2026-05-07 20:01 -25.60126 -54.20246 5035 ft 195 kts 243°
2026-05-07 20:01 -25.60966 -54.21446 4909 ft 199 kts 243°
2026-05-07 20:02 -25.61787 -54.22610 4811 ft 191 kts 243°
2026-05-07 20:02 -25.62599 -54.23765 4659 ft 190 kts 243°
2026-05-07 20:02 -25.63451 -54.24898 4542 ft 192 kts 240°
2026-05-07 20:02 -25.64312 -54.26029 4444 ft 192 kts 241°
2026-05-07 20:03 -25.65177 -54.27168 4338 ft 194 kts 242°
2026-05-07 20:03 -25.66046 -54.28314 4217 ft 194 kts 242°
2026-05-07 20:03 -25.66912 -54.29454 4111 ft 193 kts 241°
2026-05-07 20:03 -25.67754 -54.30560 4021 ft 184 kts 242°
2026-05-07 20:04 -25.68516 -54.31669 3840 ft 175 kts 256°
2026-05-07 20:04 -25.68655 -54.32863 3640 ft 146 kts 296°
2026-05-07 20:04 -25.68360 -54.33916 3522 ft 142 kts 303°
2026-05-07 20:04 -25.68014 -54.34937 3361 ft 141 kts 304°
2026-05-07 20:05 -25.67651 -54.35934 3228 ft 139 kts 305°
2026-05-07 20:05 -25.67272 -54.36924 3135 ft 140 kts 306°
2026-05-07 20:05 -25.66883 -54.37907 3135 ft 139 kts 306°
2026-05-07 20:05 -25.66515 -54.38889 3023 ft 140 kts 305°
2026-05-07 20:06 -25.66124 -54.39877 2816 ft 140 kts 308°
2026-05-07 20:06 -25.65680 -54.40837 2534 ft 137 kts 314°
2026-05-07 20:06 -25.65102 -54.41645 2297 ft 133 kts 320°
2026-05-07 20:06 -25.64493 -54.42426 2085 ft 133 kts 319°
2026-05-07 20:07 -25.63894 -54.43198 1969 ft 131 kts 319°
2026-05-07 20:07 -25.63296 -54.43965 1771 ft 132 kts 319°
2026-05-07 20:07 -25.62684 -54.44747 1557 ft 137 kts 319°
2026-05-07 20:07 -25.62051 -54.45560 1421 ft 142 kts 318°
2026-05-07 20:08 -25.61383 -54.46391 1270 ft 147 kts 319°
2026-05-07 20:08 -25.60724 -54.47258 1015 ft 147 kts 315°
2026-05-07 20:08 -25.60057 -54.48137 813 ft 148 kts 315°
2026-05-07 20:08 -25.59492 -54.48848 803 ft 89 kts 310°
2026-05-07 20:09 -25.59199 -54.49224 800 ft 56 kts 311°
2026-05-07 20:09 -25.59045 -54.49417 799 ft 16 kts 311°
2026-05-07 20:09 -25.58960 -54.49494 798 ft 11 kts 345°
2026-05-07 20:10 -25.58945 -54.49550 799 ft 2 kts 160°
2026-05-07 20:10 -25.58986 -54.49508 799 ft 14 kts 128°
2026-05-07 20:10 -25.59054 -54.49411 799 ft 20 kts 129°
2026-05-07 20:10 -25.59131 -54.49310 798 ft 17 kts 130°
2026-05-07 20:11 -25.59219 -54.49196 801 ft 17 kts 130°
2026-05-07 20:11 -25.59284 -54.49112 802 ft 10 kts 130°
2026-05-07 20:11 -25.59329 -54.49053 802 ft 10 kts 130°
2026-05-07 20:11 -25.59378 -54.48989 802 ft 12 kts 130°
2026-05-07 20:12 -25.59433 -54.48919 804 ft 11 kts 132°
2026-05-07 20:12 -25.59497 -54.48904 803 ft 11 kts 214°
2026-05-07 20:12 -25.59565 -54.48926 801 ft 11 kts 146°
2026-05-07 20:12 -25.59608 -54.48872 801 ft 11 kts 131°
2026-05-07 20:13 -25.59657 -54.48810 801 ft 9 kts 131°
2026-05-07 20:13 -25.59676 -54.48784 801 ft 6 kts 130°
2026-05-07 20:13 -25.59708 -54.48744 801 ft 6 kts 134°
2026-05-07 20:13 -25.59716 -54.48740 801 ft 1 kts 178°
2026-05-07 20:14 -25.59740 -54.48753 801 ft 6 kts 223°
2026-05-07 20:14 -25.59756 -54.48769 801 ft 3 kts 221°
2026-05-07 20:14 -25.59759 -54.48772 801 ft 0 kts 221°